Time,TemperatureF,DewpointF,PressureIn,WindDirection,WindDirectionDegrees,WindSpeedMPH,WindSpeedGustMPH,Humidity,HourlyPrecipIn,Conditions,Clouds,dailyrainin,SoftwareType,DateUTC
2013-01-27 00:00:00,19.5,13.5,30.38,North,0,0.0,0.0,77,0.00,,,0.00,VWS V14.01,2013-01-27 05:00:00,
2013-01-27 00:15:00,20.2,14.2,30.38,North,0,0.0,0.0,77,0.00,,,0.00,VWS V14.01,2013-01-27 05:15:00,
2013-01-27 00:30:00,20.5,14.1,30.39,North,0,0.0,0.0,76,0.00,,,0.00,VWS V14.01,2013-01-27 05:30:00,
2013-01-27 00:45:00,20.0,13.7,30.40,North,0,0.0,0.0,76,0.00,,,0.00,VWS V14.01,2013-01-27 05:45:00,
2013-01-27 01:00:00,19.5,13.5,30.39,North,0,0.0,0.0,77,0.00,,,0.00,VWS V14.01,2013-01-27 06:00:00,
2013-01-27 01:15:00,19.2,13.2,30.38,North,0,0.0,0.0,77,0.00,,,0.00,VWS V14.01,2013-01-27 06:15:00,
2013-01-27 01:30:00,19.2,13.2,30.38,North,0,0.0,0.0,77,0.00,,,0.00,VWS V14.01,2013-01-27 06:30:00,
2013-01-27 01:45:00,19.2,13.5,30.38,North,0,0.0,0.0,78,0.00,,,0.00,VWS V14.01,2013-01-27 06:45:00,
2013-01-27 02:00:00,19.2,13.5,30.38,North,0,0.0,0.0,78,0.00,,,0.00,VWS V14.01,2013-01-27 07:00:00,
2013-01-27 02:15:00,19.2,13.5,30.39,North,0,0.0,0.0,78,0.00,,,0.00,VWS V14.01,2013-01-27 07:15:00,
2013-01-27 02:30:00,19.5,13.8,30.38,North,0,0.0,0.0,78,0.00,,,0.00,VWS V14.01,2013-01-27 07:30:00,
2013-01-27 02:45:00,20.2,14.4,30.38,North,0,0.0,0.0,78,0.00,,,0.00,VWS V14.01,2013-01-27 07:45:00,
2013-01-27 03:00:00,20.6,14.6,30.37,North,0,0.0,0.0,77,0.00,,,0.00,VWS V14.01,2013-01-27 08:00:00,
2013-01-27 03:15:00,21.0,14.9,30.37,North,0,0.0,0.0,77,0.00,,,0.00,VWS V14.01,2013-01-27 08:15:00,
2013-01-27 03:30:00,21.1,15.0,30.37,North,0,0.0,0.0,77,0.00,,,0.00,VWS V14.01,2013-01-27 08:30:00,
2013-01-27 03:45:00,21.0,14.6,30.38,North,0,0.0,0.0,76,0.00,,,0.00,VWS V14.01,2013-01-27 08:45:00,
2013-01-27 04:00:00,20.6,14.2,30.39,North,0,0.0,0.0,76,0.00,,,0.00,VWS V14.01,2013-01-27 09:00:00,
2013-01-27 04:15:00,20.0,14.3,30.39,North,0,0.0,0.0,78,0.00,,,0.00,VWS V14.01,2013-01-27 09:15:00,
2013-01-27 04:30:00,19.5,13.8,30.39,North,0,0.0,0.0,78,0.00,,,0.00,VWS V14.01,2013-01-27 09:30:00,
2013-01-27 04:45:00,19.2,13.5,30.38,North,0,0.0,0.0,78,0.00,,,0.00,VWS V14.01,2013-01-27 09:45:00,
2013-01-27 05:00:00,19.1,13.7,30.37,North,0,0.0,0.0,79,0.00,,,0.00,VWS V14.01,2013-01-27 10:00:00,
2013-01-27 05:15:00,19.1,13.7,30.37,North,0,0.0,0.0,79,0.00,,,0.00,VWS V14.01,2013-01-27 10:15:00,
2013-01-27 05:30:00,18.8,13.4,30.36,North,0,0.0,0.0,79,0.00,,,0.00,VWS V14.01,2013-01-27 10:30:00,
2013-01-27 05:45:00,18.6,13.5,30.36,North,0,0.0,0.0,80,0.00,,,0.00,VWS V14.01,2013-01-27 10:45:00,
2013-01-27 06:00:00,18.4,13.3,30.36,North,0,0.0,0.0,80,0.00,,,0.00,VWS V14.01,2013-01-27 11:00:00,
2013-01-27 06:15:00,18.3,13.2,30.36,North,0,0.0,0.0,80,0.00,,,0.00,VWS V14.01,2013-01-27 11:15:00,
2013-01-27 06:30:00,18.3,13.2,30.37,North,0,0.0,0.0,80,0.00,,,0.00,VWS V14.01,2013-01-27 11:30:00,
2013-01-27 06:45:00,18.3,13.5,30.38,North,0,0.0,0.0,81,0.00,,,0.00,VWS V14.01,2013-01-27 11:45:00,
2013-01-27 07:00:00,18.3,13.5,30.38,North,0,0.0,0.0,81,0.00,,,0.00,VWS V14.01,2013-01-27 12:00:00,
2013-01-27 07:15:00,18.6,13.8,30.38,North,0,0.0,0.0,81,0.00,,,0.00,VWS V14.01,2013-01-27 12:15:00,
2013-01-27 07:30:00,18.9,14.0,30.38,North,0,0.0,0.0,81,0.00,,,0.00,VWS V14.01,2013-01-27 12:30:00,
2013-01-27 07:45:00,18.9,14.0,30.38,North,0,0.0,0.0,81,0.00,,,0.00,VWS V14.01,2013-01-27 12:45:00,
2013-01-27 08:00:00,18.9,14.0,30.39,North,0,0.0,0.0,81,0.00,,,0.00,VWS V14.01,2013-01-27 13:00:00,
2013-01-27 08:15:00,19.4,14.8,30.38,North,0,0.0,0.0,82,0.00,,,0.00,VWS V14.01,2013-01-27 13:15:00,
2013-01-27 08:30:00,19.9,15.0,30.37,North,0,0.0,0.0,81,0.00,,,0.00,VWS V14.01,2013-01-27 13:30:00,
2013-01-27 08:45:00,20.2,15.3,30.37,North,0,0.0,0.0,81,0.00,,,0.00,VWS V14.01,2013-01-27 13:45:00,
2013-01-27 09:00:00,20.8,15.9,30.35,North,0,0.0,0.0,81,0.00,,,0.00,VWS V14.01,2013-01-27 14:00:00,
2013-01-27 09:15:00,21.8,16.9,30.36,North,0,0.0,0.0,81,0.00,,,0.00,VWS V14.01,2013-01-27 14:15:00,
2013-01-27 09:30:00,22.7,17.8,30.36,North,0,0.0,0.0,81,0.00,,,0.00,VWS V14.01,2013-01-27 14:30:00,
2013-01-27 09:45:00,23.5,18.0,30.35,North,0,0.0,0.0,79,0.00,,,0.00,VWS V14.01,2013-01-27 14:45:00,
2013-01-27 10:00:00,24.8,19.2,30.36,North,0,0.0,0.0,79,0.00,,,0.00,VWS V14.01,2013-01-27 15:00:00,
2013-01-27 10:15:00,25.7,19.5,30.36,North,0,0.0,0.0,77,0.01,,,0.01,VWS V14.01,2013-01-27 15:15:00,
2013-01-27 10:30:00,26.4,19.9,30.36,North,0,0.0,0.0,76,0.01,,,0.01,VWS V14.01,2013-01-27 15:30:00,
2013-01-27 10:45:00,26.9,20.4,30.37,North,0,0.0,0.0,76,0.01,,,0.01,VWS V14.01,2013-01-27 15:45:00,
2013-01-27 11:00:00,27.8,20.9,30.36,North,0,0.0,0.0,75,0.01,,,0.01,VWS V14.01,2013-01-27 16:00:00,
2013-01-27 11:15:00,28.7,21.8,30.36,North,0,0.0,0.0,75,0.01,,,0.01,VWS V14.01,2013-01-27 16:15:00,
2013-01-27 11:30:00,30.1,22.5,30.36,North,0,0.0,0.0,73,0.00,,,0.01,VWS V14.01,2013-01-27 16:30:00,
2013-01-27 11:45:00,31.6,23.0,30.35,North,0,0.0,0.0,70,0.00,,,0.01,VWS V14.01,2013-01-27 16:45:00,
2013-01-27 12:00:00,31.6,23.0,30.34,North,0,0.0,0.0,70,0.00,,,0.01,VWS V14.01,2013-01-27 17:00:00,
2013-01-27 12:15:00,31.5,23.2,30.33,North,0,0.0,0.0,71,0.00,,,0.00,VWS V14.01,2013-01-27 17:15:00,
2013-01-27 12:33:00,31.6,23.0,30.34,North,0,0.0,0.0,70,0.00,,,0.01,VWS V14.01,2013-01-27 17:33:00,
2013-01-27 12:39:00,31.5,23.2,30.33,North,0,0.0,0.0,71,0.00,,,0.00,VWS V14.01,2013-01-27 17:39:00,
2013-01-27 12:44:00,32.2,23.9,30.32,ESE,118,0.0,0.0,71,0.00,,,0.01,VWS V14.01,2013-01-27 17:44:00,
2013-01-27 12:45:00,32.1,23.4,30.31,SE,130,0.0,0.0,70,0.00,,,0.01,VWS V14.01,2013-01-27 17:45:00,
2013-01-27 12:49:00,32.1,23.8,30.31,SSE,158,0.0,0.0,71,0.00,,,0.01,VWS V14.01,2013-01-27 17:49:00,
2013-01-27 12:54:00,32.1,23.8,30.31,East,87,0.0,0.0,71,0.00,,,0.01,VWS V14.01,2013-01-27 17:54:00,
2013-01-27 12:59:00,32.2,24.2,30.31,East,97,0.0,0.0,72,0.00,,,0.01,VWS V14.01,2013-01-27 17:59:00,
2013-01-27 13:00:00,32.4,24.1,30.31,SSE,153,0.0,0.0,71,0.00,,,0.01,VWS V14.01,2013-01-27 18:00:00,
2013-01-27 13:04:00,32.5,24.2,30.31,ESE,118,0.0,0.0,71,0.00,,,0.01,VWS V14.01,2013-01-27 18:04:00,
2013-01-27 13:09:00,32.8,24.5,30.31,ESE,112,0.0,0.0,71,0.00,,,0.01,VWS V14.01,2013-01-27 18:09:00,
2013-01-27 13:14:00,32.9,24.5,30.31,SE,131,0.0,0.0,71,0.00,,,0.01,VWS V14.01,2013-01-27 18:14:00,
2013-01-27 13:15:00,32.7,24.4,30.28,ESE,109,0.0,0.0,71,0.00,,,0.01,VWS V14.01,2013-01-27 18:15:00,
2013-01-27 13:19:00,32.7,24.4,30.28,South,172,0.0,0.0,71,0.04,,,0.01,VWS V14.01,2013-01-27 18:19:00,
2013-01-27 13:24:00,32.5,24.8,30.28,ESE,112,0.0,0.0,73,0.04,,,0.01,VWS V14.01,2013-01-27 18:24:00,
2013-01-27 13:29:00,32.5,24.8,30.28,ESE,114,0.0,0.0,73,0.04,,,0.01,VWS V14.01,2013-01-27 18:29:00,
2013-01-27 13:30:00,32.8,24.8,30.27,SSE,160,0.0,0.0,72,0.04,,,0.01,VWS V14.01,2013-01-27 18:30:00,
2013-01-27 13:34:00,32.9,24.9,30.27,SE,133,0.0,0.0,72,0.00,,,0.01,VWS V14.01,2013-01-27 18:34:00,
2013-01-27 13:39:00,33.2,24.8,30.27,ESE,120,0.0,0.0,71,0.00,,,0.01,VWS V14.01,2013-01-27 18:39:00,
2013-01-27 13:44:00,33.4,25.4,30.27,ESE,117,0.0,0.0,72,0.00,,,0.01,VWS V14.01,2013-01-27 18:44:00,
2013-01-27 13:45:00,33.5,25.1,30.26,SE,135,0.0,0.0,71,0.00,,,0.01,VWS V14.01,2013-01-27 18:45:00,
2013-01-27 13:49:00,33.5,25.1,30.26,SSE,149,0.0,0.0,71,0.00,,,0.01,VWS V14.01,2013-01-27 18:49:00,
2013-01-27 13:54:00,33.8,25.1,30.26,SE,131,0.0,0.0,70,0.00,,,0.01,VWS V14.01,2013-01-27 18:54:00,
2013-01-27 13:59:00,33.8,25.1,30.26,ESE,118,0.0,0.0,70,0.00,,,0.01,VWS V14.01,2013-01-27 18:59:00,
2013-01-27 14:00:00,33.5,24.8,30.25,SE,138,0.0,0.0,70,0.00,,,0.01,VWS V14.01,2013-01-27 19:00:00,
2013-01-27 14:04:00,33.4,25.0,30.25,SE,124,0.0,0.0,71,0.00,,,0.01,VWS V14.01,2013-01-27 19:04:00,
2013-01-27 14:09:00,33.2,24.8,30.25,ESE,115,0.0,0.0,71,0.00,,,0.01,VWS V14.01,2013-01-27 19:09:00,
2013-01-27 14:14:00,33.1,24.7,30.25,East,98,0.0,0.0,71,0.00,,,0.01,VWS V14.01,2013-01-27 19:14:00,
2013-01-27 14:15:00,33.4,25.0,30.23,ESE,122,0.0,0.0,71,0.00,,,0.01,VWS V14.01,2013-01-27 19:15:00,
2013-01-27 14:19:00,33.4,25.0,30.23,SE,131,0.0,0.0,71,0.00,,,0.01,VWS V14.01,2013-01-27 19:19:00,
2013-01-27 14:24:00,33.5,25.1,30.23,ESE,120,0.0,0.0,71,0.00,,,0.01,VWS V14.01,2013-01-27 19:24:00,
2013-01-27 14:29:00,33.2,25.2,30.23,ESE,110,0.0,0.0,72,0.00,,,0.01,VWS V14.01,2013-01-27 19:29:00,
2013-01-27 14:30:00,33.2,25.2,30.22,ESE,118,0.0,0.0,72,0.00,,,0.01,VWS V14.01,2013-01-27 19:30:00,
2013-01-27 14:34:00,33.2,25.2,30.22,ESE,123,0.0,0.0,72,0.00,,,0.01,VWS V14.01,2013-01-27 19:34:00,
2013-01-27 14:39:00,33.4,25.4,30.22,ESE,121,0.0,0.0,72,0.00,,,0.01,VWS V14.01,2013-01-27 19:39:00,
2013-01-27 14:44:00,33.4,25.0,30.22,SE,125,0.0,0.0,71,0.00,,,0.01,VWS V14.01,2013-01-27 19:44:00,
2013-01-27 14:45:00,33.1,25.4,30.20,ESE,121,0.0,0.0,73,0.00,,,0.01,VWS V14.01,2013-01-27 19:45:00,
2013-01-27 14:49:00,33.1,25.4,30.20,ESE,119,0.0,0.0,73,0.00,,,0.01,VWS V14.01,2013-01-27 19:49:00,
2013-01-27 14:54:00,33.1,25.7,30.20,SE,124,0.0,0.0,74,0.00,,,0.01,VWS V14.01,2013-01-27 19:54:00,
2013-01-27 14:59:00,32.9,25.2,30.20,East,89,0.0,0.0,73,0.00,,,0.01,VWS V14.01,2013-01-27 19:59:00,
2013-01-27 15:00:00,32.9,25.2,30.19,ESE,119,0.0,0.0,73,0.00,,,0.01,VWS V14.01,2013-01-27 20:00:00,
2013-01-27 15:04:00,32.9,25.2,30.19,SE,128,0.0,0.0,73,0.00,,,0.01,VWS V14.01,2013-01-27 20:04:00,
2013-01-27 15:09:00,32.9,25.2,30.19,East,101,0.0,0.0,73,0.00,,,0.01,VWS V14.01,2013-01-27 20:09:00,
2013-01-27 15:14:00,32.9,25.2,30.19,ESE,110,0.0,0.0,73,0.00,,,0.01,VWS V14.01,2013-01-27 20:14:00,
2013-01-27 15:15:00,32.9,25.5,30.19,ESE,115,0.0,0.0,74,0.00,,,0.01,VWS V14.01,2013-01-27 20:15:00,
2013-01-27 15:19:00,32.9,25.5,30.19,East,96,0.0,0.0,74,0.00,,,0.01,VWS V14.01,2013-01-27 20:19:00,
2013-01-27 15:24:00,33.1,25.4,30.19,ESE,107,0.0,0.0,73,0.00,,,0.01,VWS V14.01,2013-01-27 20:24:00,
2013-01-27 15:29:00,33.1,25.4,30.19,ESE,111,0.0,0.0,73,0.00,,,0.01,VWS V14.01,2013-01-27 20:29:00,
2013-01-27 15:30:00,33.1,25.1,30.18,ESE,113,0.0,0.0,72,0.00,,,0.01,VWS V14.01,2013-01-27 20:30:00,
2013-01-27 15:34:00,33.1,25.4,30.18,ESE,114,0.0,0.0,73,0.00,,,0.01,VWS V14.01,2013-01-27 20:34:00,
2013-01-27 15:39:00,33.1,25.4,30.18,SE,124,0.0,0.0,73,0.00,,,0.01,VWS V14.01,2013-01-27 20:39:00,
2013-01-27 15:44:00,33.1,25.4,30.18,SE,132,0.0,0.0,73,0.00,,,0.01,VWS V14.01,2013-01-27 20:44:00,
2013-01-27 15:45:00,33.2,25.5,30.18,SE,125,0.0,0.0,73,0.00,,,0.01,VWS V14.01,2013-01-27 20:45:00,
2013-01-27 15:49:00,33.2,25.5,30.18,SE,131,0.0,0.0,73,0.00,,,0.01,VWS V14.01,2013-01-27 20:49:00,
2013-01-27 15:54:00,33.4,25.7,30.18,ESE,121,0.0,0.0,73,0.00,,,0.01,VWS V14.01,2013-01-27 20:54:00,
2013-01-27 15:59:00,33.4,25.4,30.18,ESE,114,0.0,0.0,72,0.00,,,0.01,VWS V14.01,2013-01-27 20:59:00,
2013-01-27 16:00:00,33.4,25.7,30.18,SE,139,0.0,0.0,73,0.00,,,0.01,VWS V14.01,2013-01-27 21:00:00,
2013-01-27 16:04:00,33.4,25.7,30.18,SE,139,0.0,0.0,73,0.00,,,0.01,VWS V14.01,2013-01-27 21:04:00,
2013-01-27 16:09:00,33.5,26.1,30.18,SE,136,0.0,0.0,74,0.00,,,0.01,VWS V14.01,2013-01-27 21:09:00,
2013-01-27 16:14:00,33.5,26.1,30.18,SE,127,0.0,0.0,74,0.00,,,0.01,VWS V14.01,2013-01-27 21:14:00,
2013-01-27 16:15:00,33.5,25.8,30.18,ESE,110,0.0,0.0,73,0.00,,,0.01,VWS V14.01,2013-01-27 21:15:00,
2013-01-27 16:19:00,33.5,25.8,30.18,ESE,110,0.0,0.0,73,0.00,,,0.01,VWS V14.01,2013-01-27 21:19:00,
2013-01-27 16:24:00,33.5,26.1,30.18,ESE,122,0.0,0.0,74,0.00,,,0.01,VWS V14.01,2013-01-27 21:24:00,
2013-01-27 16:29:00,33.5,26.4,30.18,ESE,110,0.0,0.0,75,0.00,,,0.01,VWS V14.01,2013-01-27 21:29:00,
2013-01-27 16:30:00,33.4,26.7,30.18,ESE,107,0.0,0.0,76,0.00,,,0.01,VWS V14.01,2013-01-27 21:30:00,
2013-01-27 16:45:00,33.1,27.3,30.17,North,0,0.0,0.0,79,0.01,,,0.01,VWS V14.01,2013-01-27 21:45:00,
2013-01-27 17:00:00,32.8,27.9,30.16,North,0,0.0,0.0,82,0.01,,,0.01,VWS V14.01,2013-01-27 22:00:00,
2013-01-27 17:15:00,32.8,27.9,30.17,North,0,0.0,0.0,82,0.01,,,0.01,VWS V14.01,2013-01-27 22:15:00,
2013-01-27 17:30:00,32.7,28.1,30.16,North,0,0.0,0.0,83,0.01,,,0.01,VWS V14.01,2013-01-27 22:30:00,
2013-01-27 17:45:00,32.7,27.8,30.17,North,0,0.0,0.0,82,0.02,,,0.02,VWS V14.01,2013-01-27 22:45:00,
2013-01-27 18:00:00,32.8,28.2,30.18,North,0,0.0,0.0,83,0.01,,,0.02,VWS V14.01,2013-01-27 23:00:00,
2013-01-27 18:15:00,32.8,28.5,30.18,North,0,0.0,0.0,84,0.01,,,0.02,VWS V14.01,2013-01-27 23:15:00,
2013-01-27 18:30:00,32.8,29.1,30.19,North,0,0.0,0.0,86,0.01,,,0.02,VWS V14.01,2013-01-27 23:30:00,
2013-01-27 18:45:00,32.7,29.3,30.19,North,0,0.0,0.0,87,0.01,,,0.02,VWS V14.01,2013-01-27 23:45:00,
2013-01-27 19:00:00,32.7,29.5,30.19,North,0,0.0,0.0,88,0.00,,,0.02,VWS V14.01,2013-01-28 00:00:00,
2013-01-27 19:15:00,32.5,29.6,30.17,North,0,0.0,0.0,89,0.00,,,0.02,VWS V14.01,2013-01-28 00:15:00,
2013-01-27 19:30:00,32.5,29.9,30.16,North,0,0.0,0.0,90,0.00,,,0.02,VWS V14.01,2013-01-28 00:30:00,
2013-01-27 19:45:00,32.5,30.2,30.15,North,0,0.0,0.0,91,0.00,,,0.02,VWS V14.01,2013-01-28 00:45:00,
2013-01-27 20:00:00,32.5,30.2,30.14,North,0,0.0,0.0,91,0.00,,,0.02,VWS V14.01,2013-01-28 01:00:00,
2013-01-27 20:15:00,32.7,30.6,30.12,North,0,0.0,0.0,92,0.00,,,0.02,VWS V14.01,2013-01-28 01:15:00,
2013-01-27 20:30:00,32.7,30.6,30.11,North,0,0.0,0.0,92,0.00,,,0.02,VWS V14.01,2013-01-28 01:30:00,
2013-01-27 20:45:00,32.8,30.7,30.11,North,0,0.0,0.0,92,0.00,,,0.02,VWS V14.01,2013-01-28 01:45:00,
2013-01-27 21:00:00,32.9,31.1,30.09,North,0,0.0,0.0,93,0.00,,,0.02,VWS V14.01,2013-01-28 02:00:00,
2013-01-27 21:15:00,33.1,31.3,30.08,North,0,0.0,0.0,93,0.00,,,0.02,VWS V14.01,2013-01-28 02:15:00,
2013-01-27 21:30:00,33.4,31.6,30.08,North,0,0.0,0.0,93,0.01,,,0.03,VWS V14.01,2013-01-28 02:30:00,
2013-01-27 21:45:00,33.7,31.9,30.06,North,0,0.0,0.0,93,0.01,,,0.03,VWS V14.01,2013-01-28 02:45:00,
2013-01-27 22:00:00,33.7,31.9,30.03,North,0,0.0,0.0,93,0.01,,,0.03,VWS V14.01,2013-01-28 03:00:00,
2013-01-27 22:15:00,33.8,32.3,30.03,North,0,0.0,0.0,94,0.01,,,0.03,VWS V14.01,2013-01-28 03:15:00,
2013-01-27 22:30:00,34.1,32.6,30.03,North,0,0.0,0.0,94,0.01,,,0.03,VWS V14.01,2013-01-28 03:30:00,
2013-01-27 22:45:00,34.4,32.9,30.02,North,0,0.0,0.0,94,0.01,,,0.04,VWS V14.01,2013-01-28 03:45:00,
2013-01-27 23:00:00,34.7,33.4,30.02,North,0,0.0,0.0,95,0.01,,,0.04,VWS V14.01,2013-01-28 04:00:00,
2013-01-27 23:15:00,35.0,33.7,30.01,North,0,0.0,0.0,95,0.02,,,0.05,VWS V14.01,2013-01-28 04:15:00,
2013-01-27 23:30:00,35.3,34.0,30.00,North,0,0.0,0.0,95,0.03,,,0.06,VWS V14.01,2013-01-28 04:30:00,
2013-01-27 23:45:00,35.8,34.8,30.01,North,0,0.0,0.0,96,0.06,,,0.09,VWS V14.01,2013-01-28 04:45:00,